When you browse on this site, cookies collect data to enhance your experience and personalize the content and advertising you see.
Visit our Privacy Policy to learn more. By continuing to use the site, you agree to this use of cookies and data.
  • In United Kingdom
  • List of Countries
  • For 7 days
  • Water Temperature
  • Weather Map
  • Weather Widgets
  • user-avatar
    Login

    Hourly Weather Salgotarjan

    Today, 9 April, Thursday

    Time Temperature Precipitation Wind Pressure Humidity
    00:00 +9°C° 0 mm 1 mps 737 mmHg 48%
    01:00 +9°C° 0 mm 1 mps 737 mmHg 48%
    02:00 +9°C° 0 mm 1 mps 736 mmHg 49%
    03:00 +7°C° 0 mm 0 mps 736 mmHg 50%
    04:00 +7°C° 0 mm 0 mps 736 mmHg 51%
    05:00 +8°C° 0 mm 0 mps 736 mmHg 50%
    06:00 +9°C° 0 mm 0 mps 736 mmHg 49%
    07:00 +11°C° 0 mm 0 mps 737 mmHg 46%
    08:00 +14°C° 0 mm 1 mps 737 mmHg 41%
    09:00 +16°C° 0 mm 2 mps 737 mmHg 36%
    10:00 +18°C° 0 mm 2 mps 737 mmHg 31%
    11:00 +19°C° 0 mm 3 mps 737 mmHg 30%
    12:00 +19°C° 0 mm 3 mps 736 mmHg 29%
    13:00 +20°C° 0 mm 4 mps 736 mmHg 28%
    14:00 +20°C° 0 mm 4 mps 735 mmHg 30%
    15:00 +19°C° 0 mm 4 mps 735 mmHg 32%
    16:00 +19°C° 0 mm 4 mps 734 mmHg 34%
    17:00 +17°C° 0 mm 3 mps 734 mmHg 41%
    18:00 +15°C° 0 mm 2 mps 734 mmHg 48%
    19:00 +13°C° 0 mm 2 mps 734 mmHg 55%
    20:00 +12°C° 0 mm 2 mps 734 mmHg 57%
    21:00 +10°C° 0 mm 2 mps 734 mmHg 59%
    22:00 +11°C° 0 mm 1 mps 734 mmHg 61%
    23:00 +10°C° 0 mm 1 mps 734 mmHg 61%

    Tomorrow, 10 April, Friday

    Time Temperature Precipitation Wind Pressure Humidity
    00:00 +10°C° 0 mm 1 mps 735 mmHg 61%
    01:00 +10°C° 0 mm 1 mps 735 mmHg 61%
    02:00 +10°C° 0 mm 1 mps 735 mmHg 64%
    03:00 +9°C° 0 mm 1 mps 735 mmHg 66%
    04:00 +9°C° 0 mm 1 mps 735 mmHg 68%
    05:00 +10°C° 0 mm 1 mps 735 mmHg 67%
    06:00 +11°C° 0 mm 1 mps 736 mmHg 66%
    07:00 +12°C° 0 mm 1 mps 736 mmHg 65%
    08:00 +13°C° 0 mm 1 mps 736 mmHg 58%
    09:00 +15°C° 0 mm 1 mps 737 mmHg 51%
    10:00 +17°C° 0 mm 2 mps 737 mmHg 45%
    11:00 +17°C° 0 mm 2 mps 737 mmHg 42%
    12:00 +18°C° 0 mm 2 mps 737 mmHg 39%
    13:00 +18°C° 0 mm 2 mps 737 mmHg 37%
    14:00 +18°C° 0 mm 2 mps 736 mmHg 38%
    15:00 +18°C° 0 mm 2 mps 736 mmHg 39%
    16:00 +17°C° 0 mm 2 mps 736 mmHg 40%
    17:00 +15°C° 0 mm 2 mps 736 mmHg 47%
    18:00 +13°C° 0 mm 2 mps 736 mmHg 53%
    19:00 +10°C° 0 mm 2 mps 736 mmHg 60%
    20:00 +10°C° 0 mm 2 mps 736 mmHg 60%
    21:00 +10°C° 0 mm 1 mps 736 mmHg 60%
    22:00 +9°C° 0 mm 1 mps 736 mmHg 60%
    23:00 +9°C° 0 mm 1 mps 736 mmHg 60%

    Day after tomorrow, 11 April, Saturday

    Time Temperature Precipitation Wind Pressure Humidity
    00:00 +8°C° 0 mm 1 mps 736 mmHg 60%
    01:00 +7°C° 0 mm 0 mps 736 mmHg 60%
    02:00 +6°C° 0 mm 0 mps 736 mmHg 61%
    03:00 +6°C° 0 mm 0 mps 736 mmHg 62%
    04:00 +5°C° 0 mm 0 mps 736 mmHg 64%
    05:00 +6°C° 0 mm 0 mps 736 mmHg 61%
    06:00 +7°C° 0 mm 0 mps 737 mmHg 58%
    07:00 +8°C° 0 mm 0 mps 737 mmHg 55%
    08:00 +10°C° 0 mm 0 mps 737 mmHg 50%
    09:00 +14°C° 0 mm 1 mps 737 mmHg 44%
    10:00 +16°C° 0 mm 1 mps 738 mmHg 38%
    11:00 +16°C° 0 mm 1 mps 738 mmHg 37%
    12:00 +18°C° 0 mm 1 mps 737 mmHg 35%
    13:00 +19°C° 0 mm 1 mps 737 mmHg 34%
    14:00 +18°C° 0 mm 1 mps 737 mmHg 34%
    15:00 +18°C° 0 mm 1 mps 737 mmHg 35%
    16:00 +18°C° 0 mm 1 mps 736 mmHg 35%
    17:00 +15°C° 0 mm 1 mps 736 mmHg 41%
    18:00 +13°C° 0 mm 1 mps 737 mmHg 47%
    19:00 +11°C° 0 mm 1 mps 737 mmHg 53%
    20:00 +11°C° 0 mm 1 mps 737 mmHg 56%
    21:00 +10°C° 0 mm 1 mps 737 mmHg 59%
    22:00 +9°C° 0 mm 1 mps 737 mmHg 62%
    23:00 +9°C° 0 mm 1 mps 737 mmHg 63%

    12 April, Sunday

    Time Temperature Precipitation Wind Pressure Humidity
    00:00 +8°C° 0 mm 1 mps 737 mmHg 64%
    01:00 +8°C° 0 mm 1 mps 737 mmHg 65%
    02:00 +7°C° 0 mm 1 mps 737 mmHg 67%
    03:00 +7°C° 0 mm 1 mps 737 mmHg 68%
    04:00 +5°C° 0 mm 0 mps 737 mmHg 69%
    05:00 +6°C° 0 mm 0 mps 737 mmHg 66%
    06:00 +7°C° 0 mm 0 mps 737 mmHg 62%
    07:00 +9°C° 0 mm 0 mps 737 mmHg 58%
    08:00 +12°C° 0 mm 1 mps 737 mmHg 53%
    09:00 +13°C° 0 mm 1 mps 737 mmHg 48%
    10:00 +15°C° 0 mm 2 mps 736 mmHg 42%
    11:00 +16°C° 0 mm 2 mps 736 mmHg 41%
    12:00 +17°C° 0 mm 2 mps 736 mmHg 40%
    13:00 +17°C° 0 mm 3 mps 736 mmHg 39%
    14:00 +17°C° 0 mm 3 mps 735 mmHg 40%
    15:00 +17°C° 0 mm 3 mps 734 mmHg 41%
    16:00 +17°C° 0 mm 3 mps 734 mmHg 42%
    17:00 +15°C° 0 mm 2 mps 733 mmHg 49%
    18:00 +13°C° 0 mm 2 mps 733 mmHg 55%
    19:00 +10°C° 0 mm 2 mps 733 mmHg 62%
    20:00 +11°C° 0 mm 1 mps 732 mmHg 65%
    21:00 +10°C° 0 mm 1 mps 732 mmHg 67%
    22:00 +9°C° 0 mm 1 mps 732 mmHg 70%
    23:00 +9°C° 0 mm 1 mps 732 mmHg 71%

    13 April, Monday

    Time Temperature Precipitation Wind Pressure Humidity
    00:00 +9°C° 0 mm 1 mps 732 mmHg 72%
    01:00 +8°C° 0 mm 1 mps 731 mmHg 73%
    02:00 +8°C° 0 mm 1 mps 731 mmHg 73%
    03:00 +9°C° 0 mm 1 mps 731 mmHg 74%
    04:00 +9°C° 0 mm 1 mps 730 mmHg 74%
    05:00 +9°C° 0 mm 1 mps 730 mmHg 74%
    06:00 +8°C° 0 mm 2 mps 730 mmHg 74%
    07:00 +9°C° 0 mm 2 mps 730 mmHg 75%
    08:00 +12°C° 0 mm 2 mps 729 mmHg 69%
    09:00 +12°C° 0 mm 3 mps 729 mmHg 64%
    10:00 +14°C° 0 mm 3 mps 729 mmHg 58%
    11:00 +15°C° 0 mm 4 mps 729 mmHg 55%
    12:00 +18°C° 0 mm 4 mps 728 mmHg 53%
    13:00 +19°C° 0 mm 5 mps 728 mmHg 50%
    14:00 +17°C° 0.3 mm 5 mps 727 mmHg 52%
    15:00 +18°C° 0.3 mm 4 mps 727 mmHg 54%
    16:00 +18°C° 0.3 mm 4 mps 726 mmHg 56%
    17:00 +15°C° 0.5 mm 4 mps 726 mmHg 63%
    18:00 +14°C° 0.5 mm 4 mps 725 mmHg 70%
    19:00 +13°C° 0.5 mm 3 mps 725 mmHg 76%
    20:00 +12°C° 0.1 mm 3 mps 725 mmHg 78%
    21:00 +12°C° 0.1 mm 3 mps 725 mmHg 80%
    22:00 +11°C° 0.1 mm 3 mps 725 mmHg 82%
    23:00 +11°C° 0 mm 3 mps 725 mmHg 84%

    14 April, Tuesday

    Time Temperature Precipitation Wind Pressure Humidity
    00:00 +11°C° 0 mm 3 mps 724 mmHg 85%
    01:00 +10°C° 0 mm 2 mps 724 mmHg 86%
    02:00 +10°C° 0 mm 3 mps 724 mmHg 88%
    03:00 +10°C° 0 mm 3 mps 724 mmHg 89%
    04:00 +8°C° 0 mm 4 mps 724 mmHg 91%
    05:00 +8°C° 0 mm 5 mps 725 mmHg 83%
    06:00 +8°C° 0 mm 5 mps 726 mmHg 74%
    07:00 +8°C° 0 mm 6 mps 727 mmHg 66%
    08:00 +7°C° 0 mm 6 mps 728 mmHg 57%
    09:00 +7°C° 0 mm 6 mps 729 mmHg 49%
    10:00 +7°C° 0 mm 6 mps 730 mmHg 40%
    11:00 +7°C° 0 mm 6 mps 731 mmHg 36%
    12:00 +7°C° 0 mm 6 mps 732 mmHg 31%
    13:00 +7°C° 0 mm 5 mps 732 mmHg 27%
    14:00 +7°C° 0 mm 5 mps 733 mmHg 29%
    15:00 +7°C° 0 mm 4 mps 733 mmHg 30%
    16:00 +7°C° 0 mm 4 mps 733 mmHg 32%
    17:00 +5°C° 0 mm 3 mps 733 mmHg 37%
    18:00 +5°C° 0 mm 2 mps 733 mmHg 43%
    19:00 +4°C° 0 mm 2 mps 734 mmHg 48%
    20:00 +4°C° 0 mm 1 mps 734 mmHg 51%
    21:00 +3°C° 0 mm 1 mps 734 mmHg 54%
    22:00 +2°C° 0 mm 1 mps 735 mmHg 57%
    23:00 +2°C° 0 mm 1 mps 735 mmHg 58%
    Show more